Time,TemperatureF,DewpointF,PressureIn,WindDirection,WindDirectionDegrees,WindSpeedMPH,WindSpeedGustMPH,Humidity,HourlyPrecipIn,Conditions,Clouds,dailyrainin,SolarRadiationWatts/m^2,SoftwareType,DateUTC
2013-06-12 00:02:00,57.0,42.0,-100.00,SW,231,0.0,3.0,58,0.00,,,0.00,11.000000,,2013-06-12 08:02:00,
2013-06-12 00:12:00,57.0,42.0,-100.00,SW,231,0.0,3.0,58,0.00,,,0.00,11.000000,,2013-06-12 08:12:00,
2013-06-12 00:22:00,57.0,42.0,-100.00,SW,231,0.0,3.0,58,0.00,,,0.00,11.000000,,2013-06-12 08:22:00,
2013-06-12 00:53:00,53.0,43.0,-100.00,SSW,196,0.0,3.0,69,0.00,,,0.00,2.000000,,2013-06-12 08:53:00,
2013-06-12 01:01:00,53.0,43.0,-100.00,SSW,196,0.0,3.0,69,0.00,,,0.00,2.000000,,2013-06-12 09:01:00,
2013-06-12 01:11:00,53.0,43.0,-100.00,SSW,196,0.0,3.0,69,0.00,,,0.00,2.000000,,2013-06-12 09:11:00,
2013-06-12 01:22:00,53.0,43.0,-100.00,SSW,196,0.0,3.0,69,0.00,,,0.00,2.000000,,2013-06-12 09:22:00,
2013-06-12 01:53:00,52.0,42.0,-100.00,SSW,194,0.0,2.0,69,0.00,,,0.00,0.000000,,2013-06-12 09:53:00,
2013-06-12 02:01:00,52.0,42.0,-100.00,SSW,194,0.0,2.0,69,0.00,,,0.00,0.000000,,2013-06-12 10:01:00,
2013-06-12 02:11:00,52.0,42.0,-100.00,SSW,194,0.0,2.0,69,0.00,,,0.00,0.000000,,2013-06-12 10:11:00,
2013-06-12 02:23:00,52.0,42.0,-100.00,SSW,194,0.0,2.0,69,0.00,,,0.00,0.000000,,2013-06-12 10:23:00,
2013-06-12 02:53:00,50.0,42.0,-100.00,SW,223,0.0,2.0,73,0.00,,,0.00,0.000000,,2013-06-12 10:53:00,
2013-06-12 03:02:00,50.0,42.0,-100.00,SW,223,0.0,2.0,73,0.00,,,0.00,0.000000,,2013-06-12 11:02:00,
2013-06-12 03:12:00,50.0,42.0,-100.00,SW,223,0.0,2.0,73,0.00,,,0.00,0.000000,,2013-06-12 11:12:00,
2013-06-12 03:24:00,50.0,42.0,-100.00,SW,223,0.0,2.0,73,0.00,,,0.00,0.000000,,2013-06-12 11:24:00,
2013-06-12 03:53:00,47.0,41.0,-100.00,NNE,14,1.0,3.0,79,0.00,,,0.00,0.000000,,2013-06-12 11:53:00,
2013-06-12 04:01:00,47.0,41.0,-100.00,NNE,14,1.0,3.0,79,0.00,,,0.00,0.000000,,2013-06-12 12:01:00,
2013-06-12 04:11:00,47.0,41.0,-100.00,NNE,14,1.0,3.0,79,0.00,,,0.00,0.000000,,2013-06-12 12:11:00,
2013-06-12 04:23:00,47.0,41.0,-100.00,NNE,14,1.0,3.0,79,0.00,,,0.00,0.000000,,2013-06-12 12:23:00,
2013-06-12 04:53:00,45.0,40.0,-100.00,NNE,29,3.0,5.0,81,0.00,,,0.00,1.000000,,2013-06-12 12:53:00,
2013-06-12 05:01:00,45.0,40.0,-100.00,NNE,29,3.0,5.0,81,0.00,,,0.00,1.000000,,2013-06-12 13:01:00,
2013-06-12 05:11:00,45.0,40.0,-100.00,NNE,29,3.0,5.0,81,0.00,,,0.00,1.000000,,2013-06-12 13:11:00,
2013-06-12 05:22:00,45.0,40.0,-100.00,NNE,29,3.0,5.0,81,0.00,,,0.00,1.000000,,2013-06-12 13:22:00,
2013-06-12 05:53:00,44.0,40.0,-100.00,NE,39,2.0,4.0,86,0.00,,,0.00,6.000000,,2013-06-12 13:53:00,
2013-06-12 06:01:00,44.0,40.0,-100.00,NE,39,2.0,4.0,86,0.00,,,0.00,6.000000,,2013-06-12 14:01:00,
2013-06-12 06:11:00,44.0,40.0,-100.00,NE,39,2.0,4.0,86,0.00,,,0.00,6.000000,,2013-06-12 14:11:00,
2013-06-12 06:23:00,44.0,40.0,-100.00,NE,39,2.0,4.0,86,0.00,,,0.00,6.000000,,2013-06-12 14:23:00,
2013-06-12 06:53:00,42.0,39.0,-100.00,NNW,330,0.0,1.0,88,0.00,,,0.00,23.000000,,2013-06-12 14:53:00,
2013-06-12 07:01:00,42.0,39.0,-100.00,NNW,330,0.0,1.0,88,0.00,,,0.00,23.000000,,2013-06-12 15:01:00,
2013-06-12 07:12:00,42.0,39.0,-100.00,NNW,330,0.0,1.0,88,0.00,,,0.00,23.000000,,2013-06-12 15:12:00,
2013-06-12 07:23:00,42.0,39.0,-100.00,NNW,330,0.0,1.0,88,0.00,,,0.00,23.000000,,2013-06-12 15:23:00,
2013-06-12 07:52:00,51.0,43.0,-100.00,SSW,196,1.0,2.0,75,0.00,,,0.00,151.000000,,2013-06-12 15:52:00,
2013-06-12 08:01:00,51.0,43.0,-100.00,SSW,196,1.0,2.0,75,0.00,,,0.00,151.000000,,2013-06-12 16:01:00,
2013-06-12 08:11:00,51.0,43.0,-100.00,SSW,196,1.0,2.0,75,0.00,,,0.00,151.000000,,2013-06-12 16:11:00,
2013-06-12 08:21:00,51.0,43.0,-100.00,SSW,196,1.0,2.0,75,0.00,,,0.00,151.000000,,2013-06-12 16:21:00,
2013-06-12 08:52:00,58.0,45.0,-100.00,South,173,0.0,2.0,61,0.00,,,0.00,252.000000,,2013-06-12 16:52:00,
2013-06-12 09:01:00,58.0,45.0,-100.00,South,173,0.0,2.0,61,0.00,,,0.00,252.000000,,2013-06-12 17:01:00,
2013-06-12 09:11:00,58.0,45.0,-100.00,South,173,0.0,2.0,61,0.00,,,0.00,252.000000,,2013-06-12 17:11:00,
2013-06-12 09:22:00,58.0,45.0,-100.00,South,173,0.0,2.0,61,0.00,,,0.00,252.000000,,2013-06-12 17:22:00,
2013-06-12 09:52:00,64.0,44.0,-100.00,SSE,164,0.0,2.0,48,0.00,,,0.00,409.000000,,2013-06-12 17:52:00,
2013-06-12 10:02:00,64.0,44.0,-100.00,SSE,164,0.0,2.0,48,0.00,,,0.00,409.000000,,2013-06-12 18:02:00,
2013-06-12 10:12:00,64.0,44.0,-100.00,SSE,164,0.0,2.0,48,0.00,,,0.00,409.000000,,2013-06-12 18:12:00,
2013-06-12 10:22:00,64.0,44.0,-100.00,SSE,164,0.0,2.0,48,0.00,,,0.00,409.000000,,2013-06-12 18:22:00,
2013-06-12 10:53:00,69.0,45.0,-100.00,NW,310,1.0,5.0,42,0.00,,,0.00,573.000000,,2013-06-12 18:53:00,
2013-06-12 11:01:00,69.0,45.0,-100.00,NW,310,1.0,5.0,42,0.00,,,0.00,573.000000,,2013-06-12 19:01:00,
2013-06-12 11:22:00,69.0,45.0,-100.00,NW,310,1.0,5.0,42,0.00,,,0.00,573.000000,,2013-06-12 19:22:00,
2013-06-12 11:52:00,73.0,45.0,-100.00,ENE,58,2.0,7.0,37,0.00,,,0.00,677.000000,,2013-06-12 19:52:00,
2013-06-12 12:01:00,73.0,45.0,-100.00,ENE,58,2.0,7.0,37,0.00,,,0.00,677.000000,,2013-06-12 20:01:00,
2013-06-12 12:21:00,73.0,45.0,-100.00,ENE,58,2.0,7.0,37,0.00,,,0.00,677.000000,,2013-06-12 20:21:00,
2013-06-12 12:54:00,74.0,41.0,-100.00,North,358,4.0,8.0,30,0.00,,,0.00,759.000000,,2013-06-12 20:54:00,
2013-06-12 13:01:00,74.0,41.0,-100.00,North,358,4.0,8.0,30,0.00,,,0.00,759.000000,,2013-06-12 21:01:00,
2013-06-12 13:11:00,74.0,41.0,-100.00,North,358,4.0,8.0,30,0.00,,,0.00,759.000000,,2013-06-12 21:11:00,
2013-06-12 14:52:00,78.0,46.0,-100.00,West,271,2.0,10.0,32,-99.99,,,0.00,817.000000,,2013-06-12 22:52:00,
2013-06-12 15:22:00,78.0,46.0,-100.00,West,271,2.0,10.0,32,-99.99,,,0.00,817.000000,,2013-06-12 23:22:00,
2013-06-12 16:01:00,79.0,42.0,-100.00,WNW,283,3.0,8.0,27,0.00,,,0.00,793.000000,,2013-06-13 00:01:00,
2013-06-12 16:11:00,79.0,42.0,-100.00,WNW,283,3.0,8.0,27,0.00,,,0.00,793.000000,,2013-06-13 00:11:00,
2013-06-12 16:22:00,79.0,42.0,-100.00,WNW,283,3.0,8.0,27,0.00,,,0.00,793.000000,,2013-06-13 00:22:00,
2013-06-12 17:53:00,79.0,42.0,-100.00,SW,230,2.0,9.0,27,-99.99,,,0.00,641.000000,,2013-06-13 01:53:00,
2013-06-12 18:01:00,79.0,42.0,-100.00,SW,230,2.0,9.0,27,-99.99,,,0.00,641.000000,,2013-06-13 02:01:00,
2013-06-12 18:52:00,75.0,44.0,-100.00,West,271,2.0,13.0,33,-99.99,,,0.00,528.000000,,2013-06-13 02:52:00,
2013-06-12 19:01:00,75.0,44.0,-100.00,West,271,2.0,13.0,33,-99.99,,,0.00,528.000000,,2013-06-13 03:01:00,
2013-06-12 19:52:00,67.0,45.0,-100.00,WSW,251,3.0,11.0,45,-99.99,,,0.00,404.000000,,2013-06-13 03:52:00,
2013-06-12 20:01:00,67.0,45.0,-100.00,WSW,251,3.0,11.0,45,-99.99,,,0.00,404.000000,,2013-06-13 04:01:00,
2013-06-12 20:11:00,67.0,45.0,-100.00,WSW,251,3.0,11.0,45,-99.99,,,0.00,404.000000,,2013-06-13 04:11:00,
2013-06-12 20:22:00,67.0,45.0,-100.00,WSW,251,3.0,11.0,45,-99.99,,,0.00,404.000000,,2013-06-13 04:22:00,
2013-06-12 20:53:00,64.0,43.0,-100.00,WSW,258,2.0,11.0,47,0.00,,,0.00,276.000000,,2013-06-13 04:53:00,
2013-06-12 21:02:00,64.0,43.0,-100.00,WSW,258,2.0,11.0,47,0.00,,,0.00,276.000000,,2013-06-13 05:02:00,
2013-06-12 21:11:00,64.0,43.0,-100.00,WSW,258,2.0,11.0,47,0.00,,,0.00,276.000000,,2013-06-13 05:11:00,
2013-06-12 21:23:00,64.0,43.0,-100.00,WSW,258,2.0,11.0,47,0.00,,,0.00,276.000000,,2013-06-13 05:23:00,
2013-06-12 21:53:00,60.0,43.0,-100.00,WSW,239,3.0,8.0,54,0.00,,,0.00,51.000000,,2013-06-13 05:53:00,
2013-06-12 22:02:00,60.0,43.0,-100.00,WSW,239,3.0,8.0,54,0.00,,,0.00,51.000000,,2013-06-13 06:02:00,
2013-06-12 22:11:00,60.0,43.0,-100.00,WSW,239,3.0,8.0,54,0.00,,,0.00,51.000000,,2013-06-13 06:11:00,
2013-06-12 22:22:00,60.0,43.0,-100.00,WSW,239,3.0,8.0,54,0.00,,,0.00,51.000000,,2013-06-13 06:22:00,
2013-06-12 22:52:00,57.0,43.0,-100.00,SW,224,3.0,7.0,59,0.00,,,0.00,24.000000,,2013-06-13 06:52:00,
2013-06-12 23:01:00,57.0,43.0,-100.00,SW,224,3.0,7.0,59,0.00,,,0.00,24.000000,,2013-06-13 07:01:00,
2013-06-12 23:11:00,57.0,43.0,-100.00,SW,224,3.0,7.0,59,0.00,,,0.00,24.000000,,2013-06-13 07:11:00,
2013-06-12 23:22:00,57.0,43.0,-100.00,SW,224,3.0,7.0,59,0.00,,,0.00,24.000000,,2013-06-13 07:22:00,
2013-06-12 23:52:00,53.0,43.0,-100.00,SSW,202,2.0,7.0,68,0.00,,,0.00,12.000000,,2013-06-13 07:52:00,